| time (UTC) | temp F | wind direction | speed knots | gust knots | rain 1hr in | rain 24hr in | rain mn in | humidity % | barometer mb |
| 20260510235003 | 53 | 144 | 1.7 | 3.5 | 0.00 | 0.30 | 0.00 | 83 | 1013.0 |
| 20260510234504 | 53 | 142 | 1.7 | 3.5 | 0.00 | 0.30 | 0.00 | 83 | 1013.0 |
| 20260510234004 | 53 | 161 | 1.7 | 6.1 | 0.00 | 0.30 | 0.00 | 82 | 1013.1 |
| 20260510233503 | 53 | 172 | 1.7 | 6.1 | 0.00 | 0.30 | 0.00 | 81 | 1013.2 |
| 20260510233004 | 53 | 173 | 1.7 | 3.5 | 0.00 | 0.30 | 0.00 | 81 | 1013.2 |
| 20260510232504 | 53 | 145 | 1.7 | 3.5 | 0.00 | 0.30 | 0.00 | 81 | 1013.0 |
| 20260510232003 | 53 | 114 | 0.9 | 3.5 | 0.00 | 0.30 | 0.00 | 81 | 1013.2 |
| 20260510231504 | 53 | 122 | 0.9 | 1.7 | 0.00 | 0.30 | 0.00 | 81 | 1013.1 |
| 20260510231003 | 53 | 135 | 0.0 | 1.7 | 0.00 | 0.30 | 0.00 | 81 | 1013.2 |
| 20260510230505 | 53 | 147 | 0.9 | 1.7 | 0.00 | 0.30 | 0.00 | 80 | 1013.3 |
| 20260510230003 | 54 | 164 | 1.7 | 3.5 | 0.00 | 0.30 | 0.00 | 80 | 1013.3 |
| 20260510225504 | 54 | 179 | 0.0 | 3.5 | 0.00 | 0.30 | 0.00 | 79 | 1013.2 |
| 20260510225004 | 54 | 162 | 0.9 | 3.5 | 0.00 | 0.30 | 0.00 | 79 | 1013.1 |
| 20260510224504 | 54 | 156 | 0.9 | 5.2 | 0.00 | 0.30 | 0.00 | 79 | 1013.4 |
| 20260510224003 | 54 | 169 | 1.7 | 5.2 | 0.00 | 0.30 | 0.00 | 78 | 1013.3 |
| 20260510223504 | 54 | 169 | 0.0 | 3.5 | 0.00 | 0.30 | 0.00 | 78 | 1013.0 |
| 20260510223004 | 54 | 175 | 1.7 | 5.2 | 0.00 | 0.30 | 0.00 | 78 | 1013.1 |
| 20260510222504 | 55 | 181 | 1.7 | 5.2 | 0.00 | 0.30 | 0.00 | 77 | 1013.1 |
| 20260510222004 | 55 | 183 | 1.7 | 7.0 | 0.00 | 0.30 | 0.00 | 77 | 1013.3 |
| 20260510221504 | 55 | 179 | 2.6 | 7.0 | 0.00 | 0.30 | 0.00 | 77 | 1013.0 |
| 20260510221004 | 55 | 167 | 3.5 | 7.0 | 0.00 | 0.30 | 0.00 | 76 | 1013.0 |
| 20260510220503 | 55 | 176 | 1.7 | 9.6 | 0.00 | 0.30 | 0.00 | 76 | 1012.9 |
| 20260510220007 | 55 | 199 | 2.6 | 9.6 | 0.00 | 0.30 | 0.00 | 76 | 1013.1 |
| 20260510215503 | 55 | 192 | 4.3 | 9.6 | 0.00 | 0.30 | 0.31 | 77 | 1012.9 |
| 20260510215002 | 55 | 171 | 2.6 | 9.6 | 0.00 | 0.30 | 0.31 | 79 | 1012.8 |
| 20260510214502 | 55 | 174 | 3.5 | 7.8 | 0.00 | 0.30 | 0.31 | 81 | 1012.9 |
| 20260510214002 | 55 | 188 | 3.5 | 9.6 | 0.00 | 0.30 | 0.31 | 81 | 1012.5 |
| 20260510213503 | 56 | 193 | 4.3 | 9.6 | 0.00 | 0.30 | 0.31 | 80 | 1012.7 |
| 20260510213002 | 56 | 192 | 2.6 | 9.6 | 0.00 | 0.30 | 0.31 | 79 | 1012.6 |
| 20260510212502 | 56 | 187 | 3.5 | 9.6 | 0.00 | 0.30 | 0.31 | 79 | 1012.9 |
| 20260510212003 | 56 | 192 | 3.5 | 9.6 | 0.00 | 0.30 | 0.31 | 79 | 1012.9 |
| 20260510211502 | 56 | 195 | 5.2 | 9.6 | 0.00 | 0.30 | 0.31 | 80 | 1012.9 |
| 20260510211002 | 56 | 172 | 4.3 | 9.6 | 0.00 | 0.30 | 0.31 | 80 | 1012.9 |
| 20260510210502 | 56 | 167 | 2.6 | 7.8 | 0.00 | 0.30 | 0.31 | 81 | 1012.8 |
| 20260510210003 | 56 | 179 | 3.5 | 9.6 | 0.00 | 0.30 | 0.31 | 81 | 1013.0 |
| 20260510205502 | 56 | 188 | 2.6 | 9.6 | 0.00 | 0.30 | 0.31 | 80 | 1012.6 |
| 20260510205003 | 56 | 177 | 2.6 | 7.8 | 0.00 | 0.30 | 0.31 | 80 | 1013.0 |
| 20260510204503 | 56 | 167 | 2.6 | 11.3 | 0.00 | 0.30 | 0.31 | 80 | 1012.6 |
| 20260510204002 | 56 | 173 | 3.5 | 11.3 | 0.00 | 0.30 | 0.31 | 79 | 1012.6 |
| 20260510203502 | 56 | 169 | 3.5 | 9.6 | 0.00 | 0.30 | 0.31 | 79 | 1012.5 |
| 20260510203002 | 56 | 170 | 4.3 | 9.6 | 0.00 | 0.30 | 0.31 | 79 | 1012.3 |
| 20260510202502 | 56 | 168 | 3.5 | 9.6 | 0.00 | 0.30 | 0.31 | 79 | 1012.6 |
| 20260510202002 | 56 | 172 | 2.6 | 9.6 | 0.00 | 0.30 | 0.31 | 80 | 1012.6 |
| 20260510201503 | 56 | 182 | 1.7 | 9.6 | 0.00 | 0.30 | 0.31 | 80 | 1012.4 |
| 20260510201002 | 56 | 171 | 5.2 | 9.6 | 0.00 | 0.30 | 0.31 | 80 | 1012.3 |
| 20260510200503 | 56 | 182 | 5.2 | 7.8 | 0.00 | 0.30 | 0.31 | 80 | 1012.4 |
| 20260510200002 | 56 | 182 | 2.6 | 7.8 | 0.00 | 0.30 | 0.31 | 81 | 1012.3 |
| 20260510195502 | 56 | 170 | 3.5 | 7.8 | 0.00 | 0.30 | 0.31 | 81 | 1012.3 |
| 20260510195002 | 56 | 175 | 3.5 | 7.8 | 0.00 | 0.30 | 0.31 | 81 | 1012.4 |
| 20260510194502 | 56 | 194 | 3.5 | 7.0 | 0.00 | 0.30 | 0.31 | 81 | 1012.3 |
| 20260510194002 | 56 | 183 | 2.6 | 7.0 | 0.00 | 0.30 | 0.31 | 82 | 1012.1 |
| 20260510193503 | 56 | 171 | 3.5 | 9.6 | 0.00 | 0.30 | 0.31 | 82 | 1012.3 |
| 20260510193003 | 56 | 174 | 3.5 | 9.6 | 0.00 | 0.30 | 0.31 | 83 | 1012.3 |
| 20260510192503 | 56 | 181 | 3.5 | 7.0 | 0.00 | 0.30 | 0.31 | 84 | 1012.2 |
| 20260510192003 | 57 | 184 | 2.6 | 7.0 | 0.00 | 0.30 | 0.31 | 85 | 1012.2 |
| 20260510191502 | 57 | 176 | 1.7 | 6.1 | 0.00 | 0.30 | 0.31 | 85 | 1012.3 |
| 20260510191003 | 57 | 175 | 3.5 | 6.1 | 0.00 | 0.30 | 0.31 | 85 | 1012.2 |
| 20260510190502 | 57 | 178 | 1.7 | 7.0 | 0.00 | 0.30 | 0.31 | 85 | 1012.3 |
| 20260510190002 | 57 | 186 | 1.7 | 7.0 | 0.00 | 0.30 | 0.31 | 85 | 1012.1 |
| 20260510185503 | 57 | 182 | 1.7 | 7.0 | 0.00 | 0.30 | 0.31 | 85 | 1012.0 |
| 20260510185002 | 57 | 164 | 1.7 | 7.0 | 0.00 | 0.30 | 0.31 | 84 | 1012.2 |
| 20260510184503 | 57 | 129 | 3.5 | 7.0 | 0.00 | 0.30 | 0.31 | 84 | 1011.8 |
| 20260510184003 | 57 | 111 | 1.7 | 6.1 | 0.00 | 0.30 | 0.31 | 84 | 1012.1 |
| 20260510183502 | 58 | 157 | 1.7 | 5.2 | 0.00 | 0.30 | 0.31 | 84 | 1011.8 |
| 20260510183002 | 57 | 147 | 1.7 | 6.1 | 0.00 | 0.30 | 0.31 | 84 | 1012.0 |
| 20260510182503 | 57 | 141 | 2.6 | 6.1 | 0.00 | 0.30 | 0.31 | 84 | 1011.6 |
| 20260510182002 | 57 | 183 | 3.5 | 7.8 | 0.00 | 0.30 | 0.31 | 84 | 1011.8 |
| 20260510181502 | 58 | 187 | 3.5 | 7.8 | 0.00 | 0.30 | 0.31 | 84 | 1011.6 |
| 20260510181002 | 58 | 173 | 6.1 | 7.8 | 0.00 | 0.30 | 0.31 | 83 | 1011.8 |
| 20260510180502 | 58 | 183 | 3.5 | 12.2 | 0.00 | 0.30 | 0.31 | 84 | 1011.6 |
| 20260510180003 | 57 | 196 | 3.5 | 12.2 | 0.00 | 0.30 | 0.31 | 85 | 1011.7 |
| 20260510175502 | 57 | 203 | 7.0 | 12.2 | 0.00 | 0.30 | 0.31 | 86 | 1011.7 |
| 20260510175003 | 57 | 210 | 5.2 | 7.8 | 0.00 | 0.30 | 0.31 | 88 | 1011.6 |
| 20260510174503 | 56 | 201 | 4.3 | 9.6 | 0.00 | 0.30 | 0.31 | 90 | 1011.9 |
| 20260510174003 | 56 | 179 | 5.2 | 9.6 | 0.00 | 0.30 | 0.30 | 91 | 1011.4 |
| 20260510173502 | 56 | 189 | 3.5 | 9.6 | 0.00 | 0.30 | 0.30 | 93 | 1011.5 |
| 20260510173003 | 56 | 190 | 4.3 | 9.6 | 0.00 | 0.30 | 0.30 | 93 | 1011.3 |
| 20260510172503 | 56 | 183 | 5.2 | 11.3 | 0.00 | 0.30 | 0.30 | 94 | 1011.4 |
| 20260510172003 | 56 | 187 | 4.3 | 11.3 | 0.00 | 0.30 | 0.30 | 94 | 1011.6 |
| 20260510171503 | 56 | 193 | 5.2 | 9.6 | 0.01 | 0.30 | 0.30 | 94 | 1011.7 |
| 20260510171002 | 56 | 194 | 4.3 | 9.6 | 0.01 | 0.31 | 0.30 | 94 | 1011.6 |
| 20260510170502 | 56 | 199 | 5.2 | 9.6 | 0.01 | 0.31 | 0.30 | 94 | 1011.7 |
| 20260510170002 | 56 | 203 | 3.5 | 11.3 | 0.01 | 0.31 | 0.30 | 94 | 1011.4 |
| 20260510165502 | 55 | 205 | 4.3 | 11.3 | 0.02 | 0.31 | 0.30 | 94 | 1011.7 |
| 20260510165003 | 55 | 205 | 7.0 | 11.3 | 0.02 | 0.35 | 0.30 | 94 | 1011.7 |
| 20260510164502 | 55 | 200 | 5.2 | 13.0 | 0.06 | 0.35 | 0.30 | 95 | 1011.5 |
| 20260510164002 | 55 | 220 | 7.0 | 13.9 | 0.13 | 0.35 | 0.30 | 95 | 1011.7 |
| 20260510163502 | 55 | 215 | 8.7 | 13.9 | 0.17 | 0.35 | 0.30 | 94 | 1011.6 |
| 20260510163002 | 55 | 191 | 7.0 | 13.0 | 0.17 | 0.35 | 0.30 | 94 | 1011.6 |
| 20260510162504 | 55 | 197 | 7.0 | 13.0 | 0.17 | 0.38 | 0.30 | 94 | 1011.6 |
| 20260510162003 | 54 | 197 | 7.8 | 14.8 | 0.17 | 0.41 | 0.30 | 94 | 1011.7 |
| 20260510161503 | 55 | 199 | 7.0 | 17.4 | 0.15 | 0.41 | 0.28 | 94 | 1011.5 |
| 20260510161002 | 55 | 204 | 8.7 | 17.4 | 0.15 | 0.41 | 0.28 | 94 | 1011.4 |
| 20260510160503 | 55 | 217 | 10.4 | 17.4 | 0.15 | 0.41 | 0.28 | 94 | 1011.3 |
| 20260510160003 | 55 | 211 | 6.1 | 18.2 | 0.15 | 0.41 | 0.28 | 94 | 1011.4 |
| 20260510155503 | 55 | 200 | 7.8 | 20.9 | 0.14 | 0.40 | 0.27 | 93 | 1011.2 |
| 20260510155003 | 55 | 211 | 7.8 | 20.9 | 0.13 | 0.41 | 0.26 | 93 | 1011.3 |
| 20260510154502 | 55 | 219 | 9.6 | 25.2 | 0.08 | 0.37 | 0.21 | 91 | 1011.2 |
| 20260510154002 | 58 | 205 | 9.6 | 25.2 | 0.02 | 0.31 | 0.15 | 87 | 1011.1 |
| 20260510153503 | 61 | 177 | 6.1 | 12.2 | 0.00 | 0.28 | 0.13 | 84 | 1010.6 |
| 20260510153003 | 61 | 176 | 3.5 | 12.2 | 0.00 | 0.28 | 0.13 | 83 | 1010.4 |
| 20260510152503 | 61 | 183 | 6.1 | 12.2 | 0.00 | 0.28 | 0.13 | 83 | 1010.3 |
| 20260510152002 | 61 | 187 | 7.0 | 12.2 | 0.00 | 0.28 | 0.13 | 83 | 1010.0 |
| 20260510151503 | 61 | 191 | 6.1 | 11.3 | 0.00 | 0.28 | 0.13 | 83 | 1010.2 |
| 20260510151003 | 61 | 192 | 6.1 | 12.2 | 0.00 | 0.28 | 0.13 | 84 | 1010.3 |
| 20260510150502 | 60 | 184 | 5.2 | 12.2 | 0.00 | 0.28 | 0.13 | 86 | 1010.3 |
| 20260510150003 | 61 | 182 | 1.7 | 7.8 | 0.00 | 0.28 | 0.13 | 89 | 1010.2 |
| 20260510145503 | 60 | 178 | 3.5 | 7.8 | 0.00 | 0.28 | 0.13 | 90 | 1010.4 |
| 20260510145003 | 59 | 143 | 3.5 | 7.8 | 0.01 | 0.28 | 0.13 | 90 | 1010.5 |
| 20260510144502 | 59 | 161 | 3.5 | 11.3 | 0.02 | 0.28 | 0.13 | 91 | 1010.4 |
| 20260510144003 | 58 | 185 | 3.5 | 11.3 | 0.04 | 0.28 | 0.13 | 92 | 1010.7 |
| 20260510143503 | 57 | 191 | 7.0 | 9.6 | 0.04 | 0.28 | 0.13 | 92 | 1010.5 |
| 20260510143002 | 58 | 188 | 3.5 | 9.6 | 0.04 | 0.28 | 0.13 | 93 | 1010.9 |
| 20260510142503 | 58 | 178 | 2.6 | 9.6 | 0.04 | 0.28 | 0.13 | 94 | 1010.9 |
| 20260510142002 | 57 | 194 | 3.5 | 9.6 | 0.04 | 0.28 | 0.13 | 94 | 1011.1 |
| 20260510141503 | 57 | 184 | 1.7 | 9.6 | 0.04 | 0.28 | 0.13 | 94 | 1011.0 |
| 20260510141003 | 56 | 177 | 2.6 | 11.3 | 0.04 | 0.28 | 0.13 | 94 | 1011.3 |
| 20260510140502 | 56 | 187 | 4.3 | 11.3 | 0.04 | 0.28 | 0.13 | 93 | 1011.5 |
| 20260510140003 | 56 | 196 | 3.5 | 7.8 | 0.04 | 0.28 | 0.13 | 93 | 1011.6 |
| 20260510135503 | 56 | 209 | 5.2 | 9.6 | 0.04 | 0.28 | 0.13 | 93 | 1011.3 |
| 20260510135002 | 56 | 207 | 3.5 | 9.6 | 0.02 | 0.27 | 0.12 | 93 | 1011.3 |
| 20260510134503 | 56 | 208 | 5.2 | 9.6 | 0.01 | 0.26 | 0.11 | 93 | 1011.1 |
| 20260510134002 | 57 | 224 | 3.5 | 9.6 | 0.00 | 0.25 | 0.09 | 93 | 1011.3 |
| 20260510133502 | 57 | 235 | 5.2 | 9.6 | 0.00 | 0.25 | 0.09 | 93 | 1011.4 |
| 20260510133003 | 57 | 221 | 2.6 | 7.8 | 0.00 | 0.25 | 0.09 | 93 | 1011.0 |
| 20260510132502 | 57 | 220 | 3.5 | 7.8 | 0.00 | 0.25 | 0.09 | 93 | 1011.1 |
| 20260510132003 | 57 | 224 | 5.2 | 9.6 | 0.00 | 0.25 | 0.09 | 93 | 1011.2 |
| 20260510131503 | 57 | 221 | 4.3 | 9.6 | 0.01 | 0.25 | 0.09 | 93 | 1011.5 |
| 20260510131002 | 57 | 220 | 6.1 | 9.6 | 0.01 | 0.25 | 0.09 | 93 | 1011.1 |
| 20260510130503 | 57 | 217 | 5.2 | 9.6 | 0.01 | 0.25 | 0.09 | 93 | 1011.4 |
| 20260510130002 | 57 | 203 | 4.3 | 7.8 | 0.01 | 0.25 | 0.09 | 93 | 1011.3 |
| 20260510125503 | 58 | 201 | 3.5 | 9.6 | 0.01 | 0.25 | 0.09 | 93 | 1011.3 |
| 20260510124503 | 56 | 209 | 6.1 | 9.6 | 0.02 | 0.25 | 0.09 | 93 | 1011.3 |
| 20260510124003 | 56 | 207 | 4.3 | 9.6 | 0.02 | 0.25 | 0.09 | 93 | 1011.5 |
| 20260510123002 | 57 | 197 | 4.3 | 9.6 | 0.04 | 0.25 | 0.09 | 93 | 1011.5 |
| 20260510121502 | 56 | 193 | 7.8 | 12.2 | 0.02 | 0.24 | 0.08 | 92 | 1011.7 |
| 20260510121003 | 56 | 185 | 7.0 | 9.6 | 0.02 | 0.24 | 0.08 | 92 | 1011.6 |
| 20260510120502 | 56 | 179 | 6.1 | 12.2 | 0.02 | 0.24 | 0.08 | 92 | 1011.8 |
| 20260510120003 | 56 | 178 | 6.1 | 12.2 | 0.02 | 0.24 | 0.08 | 92 | 1011.9 |
| 20260510115503 | 56 | 190 | 7.0 | 11.3 | 0.02 | 0.24 | 0.08 | 91 | 1011.6 |
| 20260510115002 | 56 | 203 | 6.1 | 11.3 | 0.02 | 0.24 | 0.08 | 91 | 1011.8 |
| 20260510114503 | 56 | 204 | 6.1 | 12.2 | 0.01 | 0.22 | 0.07 | 90 | 1011.9 |
| 20260510114002 | 56 | 205 | 6.1 | 15.6 | 0.01 | 0.22 | 0.07 | 89 | 1012.0 |
| 20260510113503 | 57 | 210 | 7.0 | 15.6 | 0.01 | 0.22 | 0.07 | 85 | 1011.8 |
| 20260510113003 | 59 | 208 | 10.4 | 15.6 | 0.00 | 0.21 | 0.06 | 76 | 1011.6 |
| 20260510112504 | 61 | 185 | 6.1 | 14.8 | 0.00 | 0.21 | 0.06 | 67 | 1011.4 |
| 20260510111503 | 62 | 178 | 6.1 | 11.3 | 0.00 | 0.21 | 0.06 | 62 | 1011.1 |
| 20260510111002 | 62 | 177 | 3.5 | 11.3 | 0.00 | 0.21 | 0.06 | 63 | 1011.1 |
| 20260510110503 | 62 | 170 | 3.5 | 7.0 | 0.00 | 0.21 | 0.06 | 62 | 1011.1 |
| 20260510110003 | 62 | 164 | 2.6 | 7.8 | 0.00 | 0.21 | 0.06 | 62 | 1011.2 |
| 20260510105502 | 62 | 163 | 2.6 | 11.3 | 0.00 | 0.21 | 0.06 | 62 | 1011.2 |
| 20260510105003 | 62 | 158 | 1.7 | 13.9 | 0.00 | 0.21 | 0.06 | 62 | 1011.2 |
| 20260510104503 | 62 | 141 | 6.1 | 13.9 | 0.00 | 0.21 | 0.06 | 60 | 1011.1 |
| 20260510104003 | 62 | 164 | 1.7 | 15.6 | 0.00 | 0.21 | 0.06 | 60 | 1011.1 |
| 20260510103503 | 62 | 172 | 4.3 | 15.6 | 0.00 | 0.21 | 0.06 | 60 | 1011.0 |
| 20260510103003 | 62 | 179 | 5.2 | 14.8 | 0.00 | 0.21 | 0.06 | 61 | 1010.9 |
| 20260510102503 | 62 | 185 | 7.0 | 14.8 | 0.00 | 0.21 | 0.06 | 63 | 1011.0 |
| 20260510102003 | 63 | 172 | 4.3 | 12.2 | 0.00 | 0.21 | 0.06 | 60 | 1011.1 |
| 20260510101503 | 63 | 166 | 5.2 | 12.2 | 0.00 | 0.21 | 0.06 | 60 | 1011.0 |
| 20260510101003 | 63 | 165 | 6.1 | 13.9 | 0.00 | 0.21 | 0.06 | 60 | 1011.0 |
| 20260510100503 | 63 | 175 | 4.3 | 13.9 | 0.00 | 0.21 | 0.06 | 60 | 1011.2 |
| 20260510100003 | 63 | 178 | 7.8 | 13.9 | 0.00 | 0.21 | 0.06 | 60 | 1011.2 |
| 20260510095503 | 63 | 173 | 2.6 | 7.0 | 0.00 | 0.21 | 0.06 | 63 | 1011.3 |
| 20260510095003 | 62 | 173 | 2.6 | 7.0 | 0.00 | 0.21 | 0.06 | 63 | 1011.1 |
| 20260510094503 | 62 | 174 | 2.6 | 7.0 | 0.00 | 0.21 | 0.06 | 64 | 1011.1 |
| 20260510094003 | 62 | 162 | 3.5 | 9.6 | 0.00 | 0.21 | 0.06 | 64 | 1011.4 |
| 20260510093503 | 61 | 149 | 3.5 | 12.2 | 0.00 | 0.21 | 0.06 | 65 | 1011.2 |
| 20260510093003 | 61 | 145 | 3.5 | 12.2 | 0.00 | 0.21 | 0.06 | 66 | 1011.2 |
| 20260510092503 | 61 | 155 | 3.5 | 11.3 | 0.00 | 0.21 | 0.06 | 67 | 1011.1 |
| 20260510092003 | 61 | 161 | 3.5 | 13.0 | 0.00 | 0.21 | 0.06 | 67 | 1011.3 |
| 20260510091503 | 61 | 163 | 7.8 | 13.0 | 0.00 | 0.21 | 0.06 | 66 | 1011.5 |
| 20260510091003 | 61 | 155 | 2.6 | 7.0 | 0.00 | 0.22 | 0.06 | 68 | 1011.3 |
| 20260510090503 | 61 | 176 | 2.6 | 9.6 | 0.00 | 0.22 | 0.06 | 69 | 1011.3 |
| 20260510090004 | 61 | 189 | 2.6 | 9.6 | 0.00 | 0.22 | 0.06 | 70 | 1011.2 |
| 20260510085503 | 60 | 187 | 2.6 | 9.6 | 0.00 | 0.22 | 0.06 | 72 | 1011.0 |
| 20260510085003 | 60 | 195 | 3.5 | 7.0 | 0.00 | 0.22 | 0.06 | 75 | 1011.4 |
| 20260510084503 | 58 | 179 | 1.7 | 11.3 | 0.00 | 0.22 | 0.06 | 81 | 1011.2 |
| 20260510084003 | 57 | 181 | 3.5 | 11.3 | 0.00 | 0.22 | 0.06 | 85 | 1011.3 |
| 20260510083503 | 56 | 176 | 4.3 | 7.8 | 0.00 | 0.22 | 0.06 | 87 | 1011.3 |
| 20260510083003 | 56 | 183 | 1.7 | 6.1 | 0.01 | 0.22 | 0.06 | 90 | 1011.5 |
| 20260510082503 | 54 | 202 | 4.3 | 7.0 | 0.01 | 0.22 | 0.06 | 91 | 1011.4 |
| 20260510082002 | 54 | 204 | 3.5 | 7.0 | 0.01 | 0.22 | 0.06 | 91 | 1011.6 |
| 20260510081503 | 54 | 200 | 3.5 | 6.1 | 0.02 | 0.22 | 0.06 | 91 | 1011.7 |
| 20260510081003 | 53 | 194 | 3.5 | 7.0 | 0.02 | 0.22 | 0.06 | 91 | 1011.6 |
| 20260510080503 | 53 | 192 | 3.5 | 7.0 | 0.02 | 0.22 | 0.06 | 91 | 1011.8 |
| 20260510080003 | 53 | 194 | 3.5 | 7.0 | 0.02 | 0.22 | 0.06 | 91 | 1011.7 |
| 20260510075503 | 53 | 196 | 3.5 | 7.0 | 0.04 | 0.22 | 0.06 | 91 | 1011.8 |
| 20260510075004 | 53 | 193 | 2.6 | 6.1 | 0.04 | 0.22 | 0.06 | 91 | 1011.9 |
| 20260510074503 | 53 | 179 | 2.6 | 9.6 | 0.06 | 0.22 | 0.06 | 90 | 1011.8 |
| 20260510074003 | 53 | 191 | 3.5 | 9.6 | 0.06 | 0.24 | 0.06 | 90 | 1011.7 |
| 20260510073503 | 53 | 213 | 5.2 | 7.8 | 0.06 | 0.24 | 0.06 | 90 | 1011.9 |
| 20260510073003 | 53 | 214 | 4.3 | 7.8 | 0.05 | 0.22 | 0.05 | 89 | 1011.7 |
| 20260510072503 | 53 | 202 | 3.5 | 5.2 | 0.05 | 0.22 | 0.05 | 89 | 1011.7 |
| 20260510072003 | 53 | 192 | 3.5 | 5.2 | 0.05 | 0.22 | 0.05 | 89 | 1011.7 |
| 20260510071503 | 53 | 183 | 3.5 | 5.2 | 0.04 | 0.21 | 0.04 | 88 | 1011.7 |
| 20260510071003 | 53 | 172 | 1.7 | 7.0 | 0.04 | 0.21 | 0.04 | 87 | 1011.8 |
| 20260510070502 | 54 | 173 | 1.7 | 7.0 | 0.04 | 0.21 | 0.04 | 87 | 1011.8 |
| 20260510070003 | 54 | 169 | 3.5 | 6.1 | 0.04 | 0.21 | 0.04 | 86 | 1011.6 |
| 20260510065503 | 54 | 173 | 1.7 | 7.8 | 0.02 | 0.20 | 0.02 | 86 | 1011.6 |
| 20260510065003 | 54 | 172 | 3.5 | 7.8 | 0.01 | 0.19 | 0.01 | 85 | 1011.6 |
| 20260510064503 | 54 | 125 | 3.5 | 12.2 | 0.00 | 0.18 | 0.00 | 86 | 1011.5 |
| 20260510064003 | 55 | 124 | 5.2 | 12.2 | 0.00 | 0.18 | 0.00 | 81 | 1011.3 |
| 20260510063503 | 56 | 143 | 3.5 | 9.6 | 0.00 | 0.18 | 0.00 | 75 | 1011.0 |
| 20260510063003 | 56 | 157 | 5.2 | 9.6 | 0.00 | 0.18 | 0.00 | 72 | 1011.1 |
| 20260510062505 | 56 | 176 | 3.5 | 7.8 | 0.00 | 0.18 | 0.00 | 72 | 1010.8 |
| 20260510062003 | 56 | 137 | 2.6 | 6.1 | 0.00 | 0.18 | 0.00 | 73 | 1011.0 |
| 20260510061503 | 56 | 120 | 3.5 | 11.3 | 0.00 | 0.18 | 0.00 | 74 | 1010.9 |
| 20260510061003 | 56 | 182 | 3.5 | 11.3 | 0.00 | 0.18 | 0.00 | 74 | 1010.9 |
| 20260510060503 | 56 | 168 | 3.5 | 7.8 | 0.00 | 0.18 | 0.00 | 72 | 1011.0 |
| 20260510060004 | 56 | 145 | 3.5 | 7.8 | 0.00 | 0.18 | 0.00 | 72 | 1011.0 |
| 20260510055503 | 56 | 160 | 2.6 | 7.8 | 0.00 | 0.18 | 0.00 | 71 | 1010.8 |
| 20260510054503 | 56 | 176 | 3.5 | 7.0 | 0.00 | 0.18 | 0.00 | 69 | 1010.8 |
| 20260510054003 | 56 | 128 | 2.6 | 12.2 | 0.00 | 0.19 | 0.00 | 69 | 1011.0 |
| 20260510053503 | 56 | 104 | 3.5 | 12.2 | 0.00 | 0.19 | 0.00 | 68 | 1010.6 |
| 20260510053003 | 56 | 138 | 2.6 | 7.0 | 0.00 | 0.19 | 0.00 | 67 | 1010.5 |
| 20260510052503 | 56 | 124 | 3.5 | 6.1 | 0.00 | 0.19 | 0.00 | 67 | 1010.6 |
| 20260510052004 | 56 | 103 | 3.5 | 11.3 | 0.00 | 0.19 | 0.00 | 66 | 1010.5 |
| 20260510051503 | 56 | 136 | 3.5 | 11.3 | 0.00 | 0.19 | 0.00 | 66 | 1010.7 |
| 20260510051004 | 56 | 172 | 2.6 | 7.0 | 0.00 | 0.19 | 0.00 | 67 | 1010.5 |
| 20260510045503 | 56 | 179 | 3.5 | 6.1 | 0.00 | 0.19 | 0.00 | 67 | 1010.4 |
| 20260510045003 | 56 | 161 | 1.7 | 6.1 | 0.00 | 0.19 | 0.00 | 69 | 1010.3 |
| 20260510044503 | 56 | 152 | 2.6 | 6.1 | 0.00 | 0.19 | 0.00 | 69 | 1010.4 |
| 20260510044003 | 56 | 147 | 1.7 | 6.1 | 0.00 | 0.19 | 0.00 | 69 | 1010.6 |
| 20260510043004 | 56 | 125 | 2.6 | 9.6 | 0.00 | 0.19 | 0.00 | 68 | 1010.4 |
| 20260510042503 | 56 | 106 | 3.5 | 9.6 | 0.00 | 0.19 | 0.00 | 68 | 1010.7 |
| 20260510041503 | 56 | 124 | 2.6 | 7.0 | 0.00 | 0.19 | 0.00 | 69 | 1010.6 |
| 20260510041003 | 55 | 118 | 2.6 | 5.2 | 0.00 | 0.19 | 0.00 | 70 | 1010.8 |
| 20260510040503 | 55 | 118 | 2.6 | 5.2 | 0.00 | 0.19 | 0.00 | 70 | 1010.8 |
| 20260510040004 | 55 | 119 | 2.6 | 6.1 | 0.00 | 0.19 | 0.00 | 70 | 1010.6 |
| 20260510035503 | 55 | 99 | 2.6 | 7.8 | 0.00 | 0.19 | 0.00 | 71 | 1010.8 |
| 20260510035004 | 55 | 91 | 3.5 | 7.8 | 0.00 | 0.19 | 0.00 | 71 | 1010.6 |
| 20260510034503 | 55 | 121 | 3.5 | 7.8 | 0.00 | 0.19 | 0.00 | 71 | 1010.7 |
| 20260510034003 | 55 | 152 | 3.5 | 7.8 | 0.00 | 0.19 | 0.00 | 71 | 1010.7 |
| 20260510033503 | 55 | 136 | 2.6 | 6.1 | 0.00 | 0.19 | 0.00 | 71 | 1010.7 |
| 20260510033003 | 55 | 133 | 1.7 | 6.1 | 0.00 | 0.19 | 0.00 | 71 | 1011.0 |
| 20260510032504 | 55 | 144 | 2.6 | 6.1 | 0.00 | 0.19 | 0.00 | 71 | 1010.9 |
| 20260510032003 | 55 | 131 | 2.6 | 6.1 | 0.00 | 0.19 | 0.00 | 71 | 1010.8 |
| 20260510031503 | 55 | 120 | 1.7 | 6.1 | 0.00 | 0.19 | 0.00 | 72 | 1010.8 |
| 20260510031003 | 55 | 104 | 1.7 | 5.2 | 0.00 | 0.19 | 0.00 | 73 | 1010.8 |
| 20260510030503 | 55 | 114 | 1.7 | 5.2 | 0.00 | 0.19 | 0.00 | 73 | 1011.0 |
| 20260510030003 | 55 | 127 | 1.7 | 3.5 | 0.00 | 0.19 | 0.00 | 73 | 1011.0 |
| 20260510025503 | 55 | 113 | 1.7 | 3.5 | 0.00 | 0.19 | 0.00 | 73 | 1010.8 |
| 20260510025004 | 55 | 117 | 1.7 | 3.5 | 0.00 | 0.19 | 0.00 | 72 | 1010.8 |
| 20260510024503 | 55 | 128 | 1.7 | 5.2 | 0.00 | 0.19 | 0.00 | 72 | 1010.9 |
| 20260510023503 | 56 | 158 | 1.7 | 6.1 | 0.00 | 0.19 | 0.00 | 71 | 1011.0 |
| 20260510023003 | 56 | 156 | 1.7 | 6.1 | 0.00 | 0.19 | 0.00 | 71 | 1011.0 |
| 20260510022504 | 56 | 141 | 1.7 | 5.2 | 0.00 | 0.19 | 0.00 | 72 | 1011.0 |
| 20260510022004 | 56 | 150 | 2.6 | 7.8 | 0.00 | 0.19 | 0.00 | 72 | 1011.1 |
| 20260510021503 | 56 | 157 | 2.6 | 7.8 | 0.00 | 0.19 | 0.00 | 71 | 1011.1 |
| 20260510021004 | 56 | 163 | 4.3 | 7.8 | 0.00 | 0.19 | 0.00 | 71 | 1011.1 |
| 20260510020503 | 56 | 156 | 1.7 | 5.2 | 0.00 | 0.19 | 0.00 | 72 | 1011.1 |
| 20260510020003 | 56 | 141 | 1.7 | 6.1 | 0.00 | 0.19 | 0.00 | 72 | 1010.9 |
| 20260510015504 | 56 | 141 | 2.6 | 6.1 | 0.00 | 0.19 | 0.00 | 71 | 1010.9 |
| 20260510015003 | 55 | 151 | 2.6 | 7.0 | 0.00 | 0.19 | 0.00 | 72 | 1011.0 |
| 20260510014003 | 55 | 132 | 1.7 | 3.5 | 0.00 | 0.19 | 0.00 | 74 | 1011.0 |
| 20260510013504 | 55 | 137 | 2.6 | 3.5 | 0.00 | 0.19 | 0.00 | 74 | 1010.9 |
| 20260510013004 | 55 | 136 | 1.7 | 3.5 | 0.00 | 0.19 | 0.00 | 74 | 1011.1 |
| 20260510012503 | 55 | 139 | 1.7 | 3.5 | 0.00 | 0.19 | 0.00 | 75 | 1011.3 |
| 20260510012003 | 55 | 108 | 1.7 | 3.5 | 0.00 | 0.19 | 0.00 | 76 | 1011.2 |
| 20260510011503 | 55 | 111 | 1.7 | 5.2 | 0.00 | 0.19 | 0.00 | 76 | 1011.1 |
| 20260510011003 | 55 | 113 | 1.7 | 5.2 | 0.00 | 0.19 | 0.00 | 76 | 1011.3 |
| 20260510010504 | 55 | 116 | 1.7 | 3.5 | 0.00 | 0.19 | 0.00 | 77 | 1011.3 |
| 20260510005504 | 55 | 98 | 1.7 | 3.5 | 0.00 | 0.19 | 0.00 | 77 | 1011.3 |
| 20260510005003 | 55 | 114 | 1.7 | 3.5 | 0.00 | 0.19 | 0.00 | 76 | 1011.5 |
| 20260510004504 | 55 | 125 | 1.7 | 3.5 | 0.00 | 0.19 | 0.00 | 77 | 1011.4 |
| 20260510004003 | 55 | 134 | 1.7 | 3.5 | 0.00 | 0.19 | 0.00 | 76 | 1011.5 |
| 20260510003503 | 56 | 160 | 0.9 | 3.5 | 0.00 | 0.19 | 0.00 | 76 | 1011.7 |
| 20260510003004 | 56 | 157 | 1.7 | 3.5 | 0.00 | 0.19 | 0.00 | 75 | 1011.7 |
| 20260510002503 | 56 | 151 | 1.7 | 3.5 | 0.00 | 0.19 | 0.00 | 76 | 1011.6 |
| 20260510002003 | 56 | 146 | 2.6 | 3.5 | 0.00 | 0.19 | 0.00 | 76 | 1011.5 |
| 20260510001504 | 56 | 149 | 1.7 | 3.5 | 0.00 | 0.19 | 0.00 | 77 | 1011.3 |
| 20260510001003 | 56 | 188 | 1.7 | 3.5 | 0.00 | 0.19 | 0.00 | 77 | 1011.6 |
| 20260510000503 | 55 | 177 | 1.7 | 3.5 | 0.00 | 0.19 | 0.00 | 78 | 1011.5 |
| 20260510000004 | 55 | 140 | 1.7 | 3.5 | 0.00 | 0.19 | 0.00 | 78 | 1011.7 |
| 20260509235503 | 55 | 166 | 1.7 | 3.5 | 0.00 | 0.19 | 0.00 | 79 | 1011.7 |